OBJECT A, 61227

Orbit data source: Space-Track

You're viewing an Uncataloged Satellite

Recently launched and/or uncataloged satellites may have evolving metadata. Metadata may include but not limited to: Owner, Maufacturer, Bus, Motor, and Mission.

OBJECT A, 61227 is a Chinese satellite in SSO that was launched on Tue, 24 Sep 2024 UTC via a JIELONG-3 launch vehicle from the Yellow Sea Launch Area, China (YSLA). Unknown objects in Earth's orbit typically refer to objects detected orbiting the Earth but have not yet been identified or cataloged. These objects could be anything from previously untracked satellites, spent rocket stages, debris from satellite collisions, or even natural meteoroids temporarily captured by Earth's gravity.

Loading next visibility...
Identifier
61227, 2024-173A
Orbit
SSO
Country
Flag of CNCN / PRC
Related business
None
Manufacturer
Unknown
Mission
Operational Commercial Imaging
Bus & Motor
Unknown
Mass
Unknown
Launch date (UTC)
2024-09-24 (1 year ago)
Launch vehicle
JIELONG-3
Launch site
Yellow Sea Launch Area, China (YSLA)
Object type
Unknown
Shape & HBR
Box + 1 Pan, 2.5 m
Radar Cross Section
5.339 m², Medium (>0.1 m² and < 1m²)

Expand to show TLE details & history
Last TLE update: 5 hours ago

TLE from 5 hours ago
0 OBJECT A
1 61227U 24173A   26035.55083998  .00054267  00000-0  95304-3 0  9996
2 61227  97.3525 118.9389 0004059  28.6521 331.4953 15.50341531 76393
Epoch: 2026-02-04T13:13Z
TLE epoch observation values (Epoch: 2026-02-04T13:13:12.574Z)
Latitude
-0.00001°
Longitude
145.92071°
Altitude
416.437 km
Speed
7.663 km/s
True Right ascension
07h 55m 45s
True Declination
0° 00' 00"
Sunlit
Object was in full shadow at epoch
Visualization orbit readout
Latitude
Unknown
Longitude
Unknown
Altitude
Unknown
Speed
Unknown
Apparent Right ascension
Unknown
Apparent Declination
Unknown
Sunlit
N/A
Visualization observer readout
Local Sidereal Time
20:39:16
Azimuth
Unknown
Elevation
Unknown
Doppler factor
Unknown
Orbital elements
Apogee altitude
415.408 km
Perigee altitude
409.895 km
Semi-major axis
6,790.788 km
Eccentricity
0.00041
Inclination
97.3525°
RAAN
118.9389°
Arg. of periapsis
28.6521°
True anomaly
331.47309°
Mean anomaly
331.4953°
Eccentric anomaly
331.4842°
Mean motion
3.87849 °/min
Orbital period
92.82 mins
BSTAR
0.00095304
Loading maneuver chart data...
Computing Atmospheric mass density...
Loading historical data...
Loading historical data...
Loading historical data...
Loading historical data...
Loading historical data...
Loading historical data...
Loading historical data...

Documentation

Showing up to 5 results
|